This demonstration page uses our WeatherBlox Daily Observations layout. Learn more.

Left ArrowRight Arrow

47.50024, -111.30081

Hourly Observations for April 4, 2022

Temp ( °F °C ) Dew Point ( °F °C ) Humidity (%) Winds ( mph kmh ) Pressure ( in mb ) Visibility ( mi km ) Precip ( " mm )
2:53 am 02:53 Clear 36 2.2 21 -6.1 55 55 S 9 15 29.70 1006 10 16 0.00 0.00
3:53 am 03:53 Clear 39 3.9 21 -6.1 48 48 SSW 13 20 29.66 1004 10 16 0.00 0.00
4:53 am 04:53 Clear 41 5 21 -6.1 45 45 SW 9 15 29.61 1003 10 16 0.00 0.00
5:53 am 05:53 Clear 43 6.1 19 -7.2 38 38 SSW 16 26 29.54 1001 10 16 0.00 0.00
6:53 am 06:53 Clear 42 5.6 18 -7.8 38 38 S 14 22 29.51 999 10 16 0.00 0.00
7:53 am 07:53 Mostly Cloudy 45 7.2 16 -8.9 31 31 S 15 24 29.46 998 10 16 0.00 0.00
8:53 am 08:53 Mostly Cloudy 46 7.8 17 -8.3 31 31 WSW 10 17 29.43 997 10 16 0.00 0.00
9:53 am 09:53 Cloudy 47 8.3 18 -7.8 31 31 SW 10 17 29.42 996 10 16 0.00 0.00
10:53 am 10:53 Mostly Sunny 50 10 18 -7.8 28 28 WSW 22 35 29.37 995 10 16 0.00 0.00
11:53 am 11:53 Sunny 51 10.6 24 -4.4 35 35 SW 26 43 29.38 995 10 16 0.00 0.00
12:53 pm 12:53 Mostly Sunny 55 12.8 26 -3.3 33 33 SW 30 48 29.31 993 10 16 0.00 0.00
1:53 pm 13:53 Sunny 58 14.4 27 -2.8 31 31 WSW 33 54 29.27 991 10 16 0.00 0.00
2:53 pm 14:53 Partly Cloudy 58 14.4 26 -3.3 29 29 SW 38 61 29.26 991 10 16 0.00 0.00
3:53 pm 15:53 Sunny 57 13.9 25 -3.9 29 29 WSW 32 52 29.23 990 10 16 0.00 0.00
4:53 pm 16:53 Partly Cloudy 53 11.7 26 -3.3 35 35 WSW 31 50 29.25 990 10 16 0.00 0.00
5:53 pm 17:53 Sunny 45 7.2 35 1.7 68 68 WSW 25 41 29.28 992 10 16 0.00 0.00
6:53 pm 18:53 Sunny 45 7.2 29 -1.7 54 54 SW 28 44 29.28 992 10 16 0.00 0.00
7:53 pm 19:53 Mostly Cloudy 36 2.2 30 -1.1 79 79 WSW 21 33 29.37 995 10 16 0.00 0.00
8:53 pm 20:53 Mostly Cloudy 35 1.7 27 -2.8 72 72 W 21 33 29.40 996 10 16 0.00 0.00
9:53 pm 21:53 Clear 33 0.6 24 -4.4 70 70 WSW 23 37 29.41 996 10 16 0.00 0.00
10:53 pm 22:53 Clear 35 1.7 18 -7.8 50 50 SW 29 46 29.40 996 10 16 0.00 0.00
11:53 pm 23:53 Clear 35 1.7 16 -8.9 46 46 SW 25 41 29.42 996 10 16 0.00 0.00

Powered by AerisWeather